DELTA 1 DEB (YO), 228

Orbit data source: Space-Track

DELTA 1 DEB (YO), 228 is space debris in LEO originally from a launch on Thu, 08 Feb 1962 UTC launched from the Air Force Eastern Test Range (AFETR). Debris objects in space refer to the collection of defunct objects orbiting the Earth. Examples of debris include non-operational satellites, rocket bodies, and fragments generated from explosions, collisions, or faulty payload assembly.

Loading next visibility...
Identifier
228, 1962-002C
Orbit
LEO
Country
Flag of USUS
Related business
Manufacturer
RCA/East Windsor
Mission
Spacecraft
Bus & Motor
Unknown
Mass
~1 kg wet, ~1 kg dry
Launch date (UTC)
1962-02-08 (64 years ago)
Launch vehicle
Unknown
Launch site
Air Force Eastern Test Range (AFETR)
Object type
Payload
Rocket body
Debris
Shape & HBR
Unknown shape, 0.1 m
Radar Cross Section
Small (<0.1 m²)

Expand to show TLE details & history
Last TLE update: 17 hours ago

TLE from 17 hours ago
0 DELTA 1 DEB (YO)
1 00228U 62002C   26036.06876440  .00032942  00000-0  72291-3 0  9998
2 00228  48.4313 295.4834 0007473 213.7211 146.3256 15.43629340422631
Epoch: 2026-02-05T01:39Z
TLE epoch observation values (Epoch: 2026-02-05T01:39:01.244Z)
Latitude
0.00005°
Longitude
135.50197°
Altitude
440.031 km
Speed
7.647 km/s
True Right ascension
19h 41m 56s
True Declination
0° 00' 00"
Sunlit
Object was in daylight at epoch
Visualization orbit readout
Latitude
Unknown
Longitude
Unknown
Altitude
Unknown
Speed
Unknown
Apparent Right ascension
Unknown
Apparent Declination
Unknown
Sunlit
N/A
Visualization observer readout
Local Sidereal Time
20:46:38
Azimuth
Unknown
Elevation
Unknown
Doppler factor
Unknown
Orbital elements
Apogee altitude
441.542 km
Perigee altitude
431.357 km
Semi-major axis
6,814.586 km
Eccentricity
0.00075
Inclination
48.4313°
RAAN
295.4834°
Arg. of periapsis
213.7211°
True anomaly
146.37304°
Mean anomaly
146.3256°
Eccentric anomaly
146.34933°
Mean motion
3.85819 °/min
Orbital period
93.31 mins
BSTAR
0.00072291
Loading maneuver chart data...
Computing Atmospheric mass density...
Loading historical data...
Loading historical data...
Loading historical data...
Loading historical data...
Loading historical data...
Loading historical data...
Loading historical data...
Other satellites on launch #2 in the year 1962 (1962-02-08 UTC)

Documentation

Showing up to 5 results
|